"TOA5","AWS1","CR1000","7964","CR1000.Std.14","CPU:AWS1_114.CR1","64363","TBL110"
"TIMESTAMP","RECORD","Wind_spd_WVc(1)","Wind_spd_WVc(2)","Air_Temp_Avg","Humidity_Avg","SW_upper_Wm2_Avg","Rain_Tot","Press_Avg","Issui_Tot","Depth_cm","SR50A_Raw","Quality","Ground_Temp_Avg(1)","Ground_Temp_Avg(2)","SW_lower_Wm2_Avg","Albedo_Avg","SWC_per(1)","SWC_per(2)","Period(1)","Period(2)"
"TS","RN","","","","","","","","","","","","","","","","","","",""
"","","WVc","WVc","Avg","Avg","Avg","Tot","Avg","Tot","Smp","Smp","Smp","Avg","Avg","Avg","Avg","Smp","Smp","Smp","Smp"
"2018-01-18 00:00:00",323773,1.062,285.1,0.069,100,0,0,860.6609,0,46.83,2.712,192,1.185,1.978,0,0,55.66,66.88,34.67,37.22
"2018-01-18 00:10:00",323774,1.179,284.9,-0.062,100,0,0,860.7455,0,46.83,2.712,192,1.159,1.974,0,0,55.6,66.88,34.65,37.22
"2018-01-18 00:20:00",323775,1.323,298.7,-0.013,100,0,0,860.9099,0,46.79,2.712,190,1.122,1.974,0,0,55.6,66.82,34.65,37.2
"2018-01-18 00:30:00",323776,0.785,263,-0.044,100,0,0,860.8193,0,46.83,2.712,191,1.111,1.974,0,0,55.6,66.76,34.65,37.19
"2018-01-18 00:40:00",323777,0.635,203.3,-0.001,100,0,0,860.7919,0,46.65,2.713,191,1.111,1.974,0,0,55.55,66.76,34.64,37.19
"2018-01-18 00:50:00",323778,0.983,157,0.006,100,0,0,860.7308,0,46.69,2.713,190,1.111,1.974,0,0,55.55,66.33,34.64,37.1
"2018-01-18 01:00:00",323779,1.294,172.2,0.026,100,0,0,860.6403,0.5,46.71,2.712,190,1.111,1.974,0,0,55.55,66.2,34.64,37.07
"2018-01-18 01:10:00",323780,1.018,172.9,0.15,100,0,0,860.6423,0,46.78,2.711,190,1.111,1.974,0,0,55.49,66.14,34.63,37.06
"2018-01-18 01:20:00",323781,0.357,206.3,0.231,99.6,0,0,860.7098,0,46.73,2.712,190,1.111,1.974,0,0,55.49,66.02,34.63,37.03
"2018-01-18 01:30:00",323782,0.367,307.1,-0.044,100,0,0,860.832,0,46.62,2.715,190,1.112,1.974,0,0,55.49,65.89,34.63,37
"2018-01-18 01:40:00",323783,0.305,259.6,-0.097,100,0,0,860.674,0,46.73,2.713,189,1.112,1.974,0,0,55.49,65.83,34.63,36.99
"2018-01-18 01:50:00",323784,0.166,284.3,0.021,100,0,0,860.99,0,46.63,2.714,190,1.112,1.974,0.01137251,0,55.43,65.71,34.61,36.96
"2018-01-18 02:00:00",323785,0.14,346.6,-0.13,100,0,0,861.2977,0,46.66,2.715,189,1.114,1.972,0.07960757,0,55.43,65.65,34.61,36.95
"2018-01-18 02:10:00",323786,0.292,352.6,-0.289,100,0,0,861.2892,0,46.46,2.717,191,1.119,1.972,0.3828745,0,55.37,65.59,34.6,36.93
"2018-01-18 02:20:00",323787,0.393,341.6,-0.447,100,0,0,861.1796,0,46.53,2.717,190,1.12,1.974,0.7050955,0,55.37,65.52,34.6,36.92
"2018-01-18 02:30:00",323788,0.253,281.4,-0.427,100,0,0,861.1817,0,46.56,2.716,189,1.126,1.968,0.9022191,0,55.37,65.4,34.6,36.89
"2018-01-18 02:40:00",323789,0.382,162.8,-0.342,100,0,0,861.1691,0,46.55,2.717,190,1.129,1.962,0.9098007,0,55.32,65.34,34.59,36.88
"2018-01-18 02:50:00",323790,0.202,125.8,-0.474,100,0,0,860.9942,0,46.55,2.717,190,1.133,1.941,1.410191,0,55.37,65.28,34.6,36.87
"2018-01-18 03:00:00",323791,0.245,9.63,-0.482,100,0,0,861.1712,0,46.49,2.718,189,1.157,1.869,1.372283,0,55.32,65.22,34.59,36.85
"2018-01-18 03:10:00",323792,0.498,326.3,-0.691,100,0,0,861.1754,0,46.48,2.719,190,1.16,1.846,0.833984,0,55.32,65.16,34.59,36.84
"2018-01-18 03:20:00",323793,0.538,21.93,-0.742,100,0,0,861.2597,0,46.54,2.719,192,1.16,1.84,0.8491474,0,55.32,64.85,34.59,36.77
"2018-01-18 03:30:00",323794,0.671,311.6,-0.386,100,0,0,861.2217,0,46.24,2.721,190,1.167,1.854,1.034898,0,55.26,64.85,34.57,36.77
"2018-01-18 03:40:00",323795,0.414,322.8,-1.007,100,0,0,861.4473,0,46.35,2.722,190,1.17,1.868,0.2615699,0,55.26,64.79,34.57,36.76
"2018-01-18 03:50:00",323796,0.323,339.2,-1.107,100,0,0,861.8496,0,46.35,2.722,190,1.187,1.887,0.1516353,0,55.26,64.79,34.57,36.76
"2018-01-18 04:00:00",323797,0.369,139.9,-1.256,100,0,0,861.7759,0,46.47,2.722,191,1.205,1.9,0.08719525,0,55.26,64.79,34.57,36.76
"2018-01-18 04:10:00",323798,0.469,231,-1.28,100,0,0,862.0519,0,46.43,2.722,190,1.215,1.906,0.1933481,0,55.26,64.73,34.57,36.74
"2018-01-18 04:20:00",323799,0.636,153.7,-1.233,100,0,0,862.0266,0,46.41,2.722,189,1.218,1.909,0.1288999,0,55.26,64.73,34.57,36.74
"2018-01-18 04:30:00",323800,0.566,205.5,-1.287,100,0,0,861.9796,0,46.47,2.722,191,1.217,1.908,0.07582322,0,55.2,64.66,34.56,36.73
"2018-01-18 04:40:00",323801,0.986,46.82,-1.381,100,0,0,862.1141,0,46.41,2.723,191,1.227,1.918,0.1781911,0,55.2,64.66,34.56,36.73
"2018-01-18 04:50:00",323802,0.671,18.54,-1.347,100,0,0,862.1894,0,46.6,2.721,190,1.235,1.926,0.5421736,0,55.15,64.66,34.55,36.73
"2018-01-18 05:00:00",323803,0.921,222.6,-1.074,100,0,0,861.8392,0,46.49,2.719,192,1.248,1.94,0.8569028,0,55.15,64.66,34.55,36.73
"2018-01-18 05:10:00",323804,1.212,198.2,-0.708,100,0,0,861.5497,0,46.8,2.715,189,1.259,1.95,0.8569382,0,55.15,64.66,34.55,36.73
"2018-01-18 05:20:00",323805,0.477,283.6,-0.147,94.1,0,0,862.0619,0,46.7,2.713,190,1.263,1.954,1.31576,0,55.15,64.6,34.55,36.72
"2018-01-18 05:30:00",323806,0.491,227.6,-0.034,87.8,0,0,862.2112,0,46.5,2.715,190,1.269,1.96,1.399211,0,55.15,64.54,34.55,36.7
"2018-01-18 05:40:00",323807,0.697,219.2,-0.114,87.5,0,0,862.0292,0,46.21,2.72,190,1.277,1.968,1.190693,0,55.09,64.54,34.53,36.7
"2018-01-18 05:50:00",323808,0.79,169.6,-0.518,90.8,0,0,861.9178,0,46.15,2.721,186,1.282,1.973,0.9328544,0,55.09,64.54,34.53,36.7
"2018-01-18 06:00:00",323809,0.411,269.2,-0.319,89.1,0,0,862.0637,0,46.03,2.72,190,1.283,1.975,1.099714,0,55.09,64.54,34.53,36.7
"2018-01-18 06:10:00",323810,0.45,296.5,-0.156,87.4,0,0,862.1869,0,46.11,2.721,187,1.284,1.976,1.084548,0,55.09,64.54,34.53,36.7
"2018-01-18 06:20:00",323811,0.346,309.7,-0.475,91.2,0,0,862.1788,0,45.99,2.723,178,1.284,1.976,1.130055,0,55.03,64.48,34.52,36.69
"2018-01-18 06:30:00",323812,0.41,276.9,-0.541,90.9,0,0,862.0595,0,46.1,2.723,191,1.284,1.976,1.05042,0,55.09,64.48,34.53,36.69
"2018-01-18 06:40:00",323813,0.431,295.2,-0.638,93,0,0,862.2571,0,46.45,2.718,190,1.284,1.976,1.209689,0,55.03,64.48,34.52,36.69
"2018-01-18 06:50:00",323814,0.389,325,-0.752,90.9,0,0,862.5698,0,45.93,2.728,192,1.283,1.976,1.126263,0,55.03,64.48,34.52,36.69
"2018-01-18 07:00:00",323815,0.277,308.5,-1.809,98.2,0.6882696,0,862.7885,0,46.18,2.728,190,1.277,1.976,0.8532293,0.947,54.97,64.48,34.51,36.69
"2018-01-18 07:10:00",323816,0.683,284.8,-1.81,100,2.949727,0,863.006,0,46.15,2.727,187,1.277,1.976,2.582441,0.995,54.97,64.42,34.51,36.68
"2018-01-18 07:20:00",323817,0.169,152.2,-1.787,100,6.509064,0,862.6688,0,46.2,2.727,192,1.279,1.976,4.364742,0.671,54.97,64.42,34.51,36.68
"2018-01-18 07:30:00",323818,0.118,172.9,-1.67,100,8.794118,0,862.7679,0,46.22,2.725,191,1.276,1.976,5.752662,0.656,54.97,64.42,34.51,36.68
"2018-01-18 07:40:00",323819,0.205,331.9,-1.342,100,13.92664,0,862.7932,0,46.26,2.724,186,1.28,1.976,8.930467,0.642,54.97,64.42,34.51,36.68
"2018-01-18 07:50:00",323820,0.075,208.7,-1.229,100,28.82866,0,862.81,0,46.14,2.725,190,1.283,1.976,17.67512,0.615,54.92,64.42,34.49,36.68
"2018-01-18 08:00:00",323821,0.391,271.2,-1.25,100,39.1291,0,862.8164,0,46.19,2.724,190,1.283,1.976,23.72357,0.606,54.97,64.36,34.51,36.66
"2018-01-18 08:10:00",323822,0.601,241.4,-1.315,100,36.12432,0,862.7819,0,46.24,2.724,190,1.284,1.976,22.39253,0.62,54.92,64.36,34.49,36.66
"2018-01-18 08:20:00",323823,0.302,49.28,-1.194,100,46.63321,0,863.0193,0,46.25,2.723,192,1.284,1.976,28.39547,0.609,54.92,64.36,34.49,36.66
"2018-01-18 08:30:00",323824,0.129,153.6,-1.135,100,48.33226,0,863.043,0,46.15,2.724,192,1.284,1.976,29.38522,0.608,54.92,64.3,34.49,36.65
"2018-01-18 08:40:00",323825,0.351,46.99,-1.112,100,47.15574,0,863.0971,0,46.17,2.724,192,1.279,1.973,28.67196,0.608,54.92,64.3,34.49,36.65
"2018-01-18 08:50:00",323826,0.273,156.7,-1.223,100,73.24512,0,863.2091,0,46.11,2.724,191,1.272,1.968,44.31334,0.606,54.86,64.3,34.48,36.65
"2018-01-18 09:00:00",323827,0.265,153.7,-1.018,100,88.32392,0,862.9856,0,46.08,2.724,190,1.236,1.957,52.41089,0.593,54.92,64.24,34.49,36.63
"2018-01-18 09:10:00",323828,0.168,299.5,-1.062,100,79.97292,0,862.9616,0,46.13,2.724,191,1.213,1.936,46.96235,0.587,54.86,64.24,34.48,36.63
"2018-01-18 09:20:00",323829,0.392,340.7,-1.118,100,88.30119,0,863.0152,0,46.17,2.725,190,1.184,1.913,51.9623,0.589,54.86,64.24,34.48,36.63
"2018-01-18 09:30:00",323830,0.195,19.66,-1.086,100,129.3594,0,863.0681,0,46.05,2.725,190,1.158,1.894,74.57621,0.577,54.86,63.63,34.48,36.5
"2018-01-18 09:40:00",323831,0.487,164.1,-1.016,100,133.5985,0,863.3584,0,46.16,2.723,190,1.12,1.848,76.15893,0.57,54.8,63.57,34.46,36.49
"2018-01-18 09:50:00",323832,0.261,11.37,-0.857,98.7,145.8207,0,863.4678,0,46.14,2.722,192,1.112,1.81,83.32294,0.571,54.8,63.57,34.46,36.49
"2018-01-18 10:00:00",323833,0.274,108.8,-0.758,97.5,108.6349,0,863.6216,0,46.04,2.724,191,1.111,1.813,62.29491,0.573,54.75,63.57,34.45,36.49
"2018-01-18 10:10:00",323834,0.349,136.6,-0.896,100,123.1347,0,863.4678,0,46.24,2.722,191,1.111,1.823,70.4262,0.572,54.75,63.51,34.45,36.47
"2018-01-18 10:20:00",323835,0.578,171.8,-0.718,97.3,211.7654,0,863.432,0,46.03,2.722,190,1.118,1.871,116.7465,0.552,54.63,63.45,34.42,36.46
"2018-01-18 10:30:00",323836,0.2,335.4,-0.376,94.6,180.6544,0,863.3246,0,45.81,2.724,187,1.167,1.901,99.13042,0.549,54.58,63.45,34.41,36.46
"2018-01-18 10:40:00",323837,0.309,30.31,-0.616,96.3,193.4715,0,863.2045,0,46.05,2.722,190,1.194,1.95,104.9683,0.543,54.63,63.39,34.42,36.44
"2018-01-18 10:50:00",323838,0.62,356.1,-0.579,94.6,221.4569,0,863.2448,0,45.99,2.723,190,1.197,1.968,119.0096,0.537,54.58,63.45,34.41,36.46
"2018-01-18 11:00:00",323839,0.713,143.3,-0.34,93.4,279.0081,0,863.2321,0,46.1,2.72,190,1.197,1.972,138.9229,0.512,54.58,63.39,34.41,36.44
"2018-01-18 11:10:00",323840,0.302,153.7,0.085,91.6,196.3849,0,863.1451,0,46.1,2.717,187,1.213,1.971,138.6802,0.72,54.58,63.39,34.41,36.44
"2018-01-18 11:20:00",323841,0.673,167.2,0.515,82.4,191.6933,0,862.9427,0,46.11,2.715,187,1.205,1.93,162.8269,0.868,54.58,63.39,34.41,36.44
"2018-01-18 11:30:00",323842,0.604,116.2,0.878,79.92,252.265,0,862.662,0,45.93,2.715,186,1.173,1.908,188.6818,0.751,54.58,63.32,34.41,36.43
"2018-01-18 11:40:00",323843,0.635,313.9,0.913,79.43,278.1552,0,862.8715,0,46.1,2.715,186,1.153,1.897,177.5124,0.639,54.58,63.32,34.41,36.43
"2018-01-18 11:50:00",323844,0.93,357.6,0.767,83.3,217.0238,0,863.1166,0,46,2.716,186,1.162,1.859,112.4291,0.518,54.52,63.32,34.4,36.43
"2018-01-18 12:00:00",323845,0.542,9.28,0.895,86,239.7586,0,863.1479,0,45.9,2.716,182,1.156,1.847,124.3821,0.518,54.46,63.32,34.38,36.43
"2018-01-18 12:10:00",323846,0.458,15.46,1.053,83.8,277.3418,0,863.11,0,45.96,2.715,186,1.154,1.849,147.6033,0.53,54.46,63.26,34.38,36.42
"2018-01-18 12:20:00",323847,0.479,355.5,1.185,83.5,324.5791,0,863.1078,0,45.97,2.714,186,1.16,1.852,171.8067,0.525,54.46,63.26,34.38,36.42
"2018-01-18 12:30:00",323848,0.512,75.05,1.282,82.3,315.3094,0,863.1057,0,45.95,2.714,187,1.164,1.887,159.7473,0.507,54.46,63.26,34.38,36.42
"2018-01-18 12:40:00",323849,0.588,24.38,1.158,80.8,147.6935,0,863.1983,0,46.03,2.714,186,1.163,1.882,76.66077,0.519,54.46,63.2,34.38,36.4
"2018-01-18 12:50:00",323850,0.838,29.27,1.033,81.6,191.2105,0,863.2484,0,46.05,2.714,181,1.143,1.854,99.96383,0.523,54.41,63.2,34.37,36.4
"2018-01-18 13:00:00",323851,0.588,269.5,1.251,79.28,260.0278,0,863.0463,0,46.03,2.713,190,1.107,1.817,131.2473,0.506,54.46,63.2,34.38,36.4
"2018-01-18 13:10:00",323852,0.624,305.2,1.466,77.68,284.1765,0,863.0561,0,45.96,2.713,186,1.09,1.78,138.7219,0.49,54.41,63.14,34.37,36.39
"2018-01-18 13:20:00",323853,0.476,306.5,1.719,76.91,291.7331,0,862.921,0,45.86,2.713,186,1.096,1.806,142.2531,0.49,54.41,63.14,34.37,36.39
"2018-01-18 13:30:00",323854,1.001,295.3,1.722,74.9,266.2973,0,862.8027,0,45.93,2.712,192,1.09,1.805,137.2434,0.515,54.41,63.14,34.37,36.39
"2018-01-18 13:40:00",323855,0.493,277,1.631,76.29,257.5814,0,862.79,0,45.9,2.713,190,1.084,1.775,130.35,0.506,54.29,63.14,34.34,36.39
"2018-01-18 13:50:00",323856,0.648,298.4,1.568,76.08,156.2555,0,862.8029,0,46.06,2.712,190,1.089,1.808,81.31379,0.521,54.29,63.08,34.34,36.38
"2018-01-18 14:00:00",323857,0.179,282.9,1.392,79.09,103.4876,0,862.9855,0,46.03,2.713,189,1.092,1.779,54.55624,0.526,54.29,63.08,34.34,36.38
"2018-01-18 14:10:00",323858,0.213,279.6,1.153,80.2,55.50502,0,863.0426,0,46.11,2.713,191,1.067,1.762,29.22678,0.526,54.29,63.08,34.34,36.38
"2018-01-18 14:20:00",323859,0.418,13.55,1.243,79.57,99.05038,0,863.0377,0,46.01,2.713,191,1.068,1.776,53.20689,0.538,54.24,63.08,34.33,36.38
"2018-01-18 14:30:00",323860,0.423,228.8,1.582,78.05,149.7615,0,862.8676,0,45.93,2.712,191,1.073,1.792,78.82897,0.527,54.24,63.08,34.33,36.38
"2018-01-18 14:40:00",323861,0.598,151.4,1.649,77.8,146.1698,0,862.8488,0,46.03,2.712,190,1.085,1.798,75.5028,0.516,54.24,63.02,34.33,36.36
"2018-01-18 14:50:00",323862,0.504,4.203,1.432,77.15,79.69899,0,862.7809,0,45.97,2.714,190,1.103,1.823,41.44978,0.52,54.24,63.02,34.33,36.36
"2018-01-18 15:00:00",323863,0.484,289.7,1.382,77.1,66.90202,0,862.7781,0,45.94,2.714,191,1.134,1.834,35.27686,0.526,54.24,63.02,34.33,36.36
"2018-01-18 15:10:00",323864,0.598,341.6,1.394,77.14,54.00787,0,862.8653,0,45.95,2.713,191,1.143,1.871,28.92824,0.535,54.18,63.02,34.32,36.36
"2018-01-18 15:20:00",323865,0.514,328.2,1.461,76.49,43.10678,0,863.0698,0,46.01,2.713,191,1.121,1.895,22.84305,0.529,54.18,62.96,34.32,36.35
"2018-01-18 15:30:00",323866,0.67,337.1,1.413,77.07,29.61851,0,863.3542,0,45.99,2.713,191,1.114,1.857,15.60148,0.526,54.24,62.96,34.33,36.35
"2018-01-18 15:40:00",323867,0.826,306.5,1.42,76.47,23.27119,0,863.3984,0,45.89,2.714,191,1.132,1.859,12.01663,0.511,54.24,62.96,34.33,36.35
"2018-01-18 15:50:00",323868,1.087,301.4,1.334,76.37,23.87254,0,863.4827,0,45.87,2.715,191,1.148,1.88,12.28948,0.511,54.18,62.96,34.32,36.35
"2018-01-18 16:00:00",323869,0.727,334.5,1.335,77.09,43.2174,0,863.6153,0,45.89,2.715,189,1.124,1.883,22.13471,0.512,54.18,62.9,34.32,36.34
"2018-01-18 16:10:00",323870,0.256,26.78,1.188,80,18.65705,0,863.8155,0,45.76,2.717,191,1.117,1.882,9.163111,0.487,54.18,62.96,34.32,36.35
"2018-01-18 16:20:00",323871,0.34,27.49,0.994,82.1,6.457456,0,863.8682,0,45.84,2.717,192,1.112,1.852,3.031633,0.456,54.18,62.96,34.32,36.35
"2018-01-18 16:30:00",323872,0.24,285.9,0.886,82.1,6.665761,0,863.8892,0,45.91,2.717,192,1.104,1.808,3.228689,0.475,54.18,62.96,34.32,36.35
"2018-01-18 16:40:00",323873,0.409,310.3,0.781,82,5.836485,0,863.925,0,45.85,2.718,186,1.108,1.804,2.743634,0.462,54.18,62.96,34.32,36.35
"2018-01-18 16:50:00",323874,0.425,290.4,0.69,83.1,4.303816,0,863.9208,0,45.76,2.719,190,1.117,1.808,1.864522,0.426,54.18,62.9,34.32,36.34
"2018-01-18 17:00:00",323875,0.744,303.2,0.572,83.9,2.594165,0,864.1503,0,45.82,2.719,191,1.125,1.814,0.9626098,0.372,54.12,62.9,34.3,36.34
"2018-01-18 17:10:00",323876,1.33,310.5,0.479,83.6,0.4756081,0,864.2789,0,45.76,2.72,190,1.139,1.808,0.2387629,0.222,54.18,62.9,34.32,36.34
"2018-01-18 17:20:00",323877,0.968,317.6,0.328,85.5,0,0,864.3631,0,45.77,2.721,186,1.157,1.789,0,0,54.12,62.84,34.3,36.32
"2018-01-18 17:30:00",323878,0.896,327.5,0.158,86.3,0,0,864.4545,0,45.71,2.722,190,1.153,1.815,0,0,54.12,62.84,34.3,36.32
"2018-01-18 17:40:00",323879,1.309,347.7,0.023,85.5,0,0,864.679,0,45.79,2.722,191,1.118,1.829,0,0,54.12,62.84,34.3,36.32
"2018-01-18 17:50:00",323880,1.515,319.5,0.017,84.1,0,0,864.8148,0,45.73,2.723,190,1.114,1.861,0,0,54.07,62.78,34.29,36.31
"2018-01-18 18:00:00",323881,1.096,319.7,-0.092,85,0,0,864.9158,0,45.72,2.724,191,1.111,1.885,0,0,54.12,62.84,34.3,36.32
"2018-01-18 18:10:00",323882,1.561,315,-0.197,82.3,0,0,865.1004,0,45.73,2.723,189,1.118,1.886,0,0,54.07,62.78,34.29,36.31
"2018-01-18 18:20:00",323883,0.627,9.62,-0.098,78.39,0,0,865.1686,0,45.78,2.723,190,1.117,1.887,0,0,54.12,62.78,34.3,36.31
"2018-01-18 18:30:00",323884,0.904,307.4,-0.168,79.92,0,0,865.2183,0,45.78,2.723,191,1.129,1.886,0,0,54.07,62.78,34.29,36.31
"2018-01-18 18:40:00",323885,0.506,289.7,-0.253,81.2,0,0,865.1491,0,45.62,2.725,190,1.143,1.887,0.7013047,0,54.07,62.78,34.29,36.31
"2018-01-18 18:50:00",323886,1.1,301.9,-0.248,78.74,0,0,865.2208,0,45.64,2.725,192,1.155,1.887,0.5382987,0,54.07,62.78,34.29,36.31
"2018-01-18 19:00:00",323887,0.611,252.6,-0.41,80.9,0,0,865.2228,0,45.75,2.725,190,1.161,1.887,0,0,54.01,62.78,34.27,36.31
"2018-01-18 19:10:00",323888,0.73,256,-0.51,80.9,0,0,865.2228,0,45.65,2.726,190,1.163,1.887,0,0,54.07,62.48,34.29,36.24
"2018-01-18 19:20:00",323889,0.715,221.4,-0.642,83.7,0,0,865.2228,0,45.68,2.727,190,1.16,1.887,0,0,54.01,62.42,34.27,36.23
"2018-01-18 19:30:00",323890,0.704,260,-0.74,84.3,0,0,865.2271,0,45.7,2.727,189,1.175,1.887,0,0,54.01,62.42,34.27,36.23
"2018-01-18 19:40:00",323891,0.477,186.7,-0.836,85.2,0,0,865.0627,0,45.61,2.729,190,1.189,1.887,0,0,54.01,62.42,34.27,36.23
"2018-01-18 19:50:00",323892,0.374,189.8,-1.01,85.8,0,0,865.0627,0,45.51,2.73,191,1.195,1.887,0,0,54.01,62.42,34.27,36.23
"2018-01-18 20:00:00",323893,0.675,223.3,-1.074,84.6,0,0,864.97,0,45.75,2.728,192,1.196,1.887,0,0,54.01,62.42,34.27,36.23
"2018-01-18 20:10:00",323894,0.629,282,-1.018,81.4,0,0,864.9047,0,45.51,2.73,190,1.196,1.887,0,0,54.01,62.36,34.27,36.21
"2018-01-18 20:20:00",323895,0.817,290.8,-1.039,80.5,0,0,864.9426,0,45.61,2.729,191,1.196,1.888,0,0,54.01,62.36,34.27,36.21
"2018-01-18 20:30:00",323896,0.62,262.8,-1.157,80.7,0,0,864.9216,0,45.59,2.73,190,1.202,1.903,0,0,53.95,62.36,34.26,36.21
"2018-01-18 20:40:00",323897,0.381,246.2,-1.238,82.7,0,0,864.8668,0,45.61,2.731,191,1.215,1.926,0,0,53.9,62.3,34.25,36.2
"2018-01-18 20:50:00",323898,1.021,275.1,-1.324,82.2,0,0,864.9633,0,45.62,2.73,190,1.225,1.94,0,0,53.9,62.3,34.25,36.2
"2018-01-18 21:00:00",323899,1.39,289.4,-1.368,81.5,0,0,865.0011,0,45.65,2.73,191,1.25,1.959,0,0,53.9,62.3,34.25,36.2
"2018-01-18 21:10:00",323900,0.764,300.5,-1.323,81.8,0,0,864.9948,0,45.54,2.731,187,1.271,1.968,0,0,53.9,62.3,34.25,36.2
"2018-01-18 21:20:00",323901,0.689,259.8,-1.284,81.6,0,0,864.9932,0,45.54,2.731,190,1.278,1.964,0,0,53.84,62.3,34.23,36.2
"2018-01-18 21:30:00",323902,0.241,214.1,-1.322,82.1,0,0,864.9623,0,45.53,2.732,189,1.28,1.963,0,0,53.9,62.3,34.25,36.2
"2018-01-18 21:40:00",323903,0.507,209.2,-1.468,82.7,0,0,864.9203,0,45.57,2.732,190,1.277,1.942,0,0,53.84,62.24,34.23,36.19
"2018-01-18 21:50:00",323904,0.533,192.6,-1.643,83.2,0,0,865.0494,0,45.46,2.734,192,1.271,1.908,0,0,53.84,62.24,34.23,36.19
"2018-01-18 22:00:00",323905,0.159,244,-1.842,84.1,0,0,865.21,0,45.4,2.735,192,1.276,1.892,0,0,53.84,62.24,34.23,36.19
"2018-01-18 22:10:00",323906,0.367,225,-1.811,82.7,0,0,865.2902,0,45.62,2.733,190,1.262,1.89,0,0,53.84,62.24,34.23,36.19
"2018-01-18 22:20:00",323907,0.524,253.8,-1.779,81.3,0,0,865.2317,0,45.49,2.735,186,1.25,1.89,0,0,53.84,62.24,34.23,36.19
"2018-01-18 22:30:00",323908,0.421,267.5,-1.859,81.1,0,0,865.139,0,45.24,2.737,192,1.261,1.891,0,0,53.84,62.24,34.23,36.19
"2018-01-18 22:40:00",323909,0.566,272.4,-2.007,82.6,0,0,865.3035,0,45.59,2.734,190,1.262,1.89,0,0,53.84,62.18,34.23,36.17
"2018-01-18 22:50:00",323910,0.561,263.7,-1.917,79.57,0,0,865.3266,0,45.59,2.734,191,1.267,1.89,0,0,53.78,62.18,34.22,36.17
"2018-01-18 23:00:00",323911,0.178,244.8,-1.898,80.6,0,0,865.5458,0,45.34,2.736,192,1.266,1.89,0,0,53.78,62.24,34.22,36.19
"2018-01-18 23:10:00",323912,0.515,245,-1.973,81.2,0,0,865.5521,0,45.49,2.735,190,1.234,1.89,0,0,53.78,62.18,34.22,36.17
"2018-01-18 23:20:00",323913,0.494,240.6,-1.921,79.31,0,0,865.5353,0,45.54,2.734,191,1.251,1.89,0,0,53.84,62.18,34.23,36.17
"2018-01-18 23:30:00",323914,1.321,302.5,-1.881,75.85,0,0,865.5226,0,45.4,2.735,190,1.206,1.89,0,0,53.78,62.24,34.22,36.19
"2018-01-18 23:40:00",323915,0.836,302.7,-1.892,75.99,0,0,865.5648,0,45.44,2.735,192,1.229,1.89,0,0,53.78,62.12,34.22,36.16
"2018-01-18 23:50:00",323916,0.373,263,-1.917,77.19,0,0,865.567,0,45.53,2.735,190,1.229,1.89,0,0,53.78,62.18,34.22,36.17
